Weather observations for the past three days for
San Jose / Reid / Hillv
Metric (Imperial)
Date Time (pdt) Wind (kph) Vis. (km) Weather Sky Cond. Temperature (ºC) Relative Humidity Wind Chill (°C) Heat Index (°C) Pressure Precipitation (cm)
Air Dwpt 6 hour altimeter (cm) sea level (mb) 1 hr 3 hr 6 hr
Max. Min.
04 21:47 NW 165 16.09 Clear and Windy SKC 17 12 73% 76.17 0.0
04 19:57 NW 15 16.09 Clear SKC 19 11 60% 76.07 0.0
04 18:47 NW 15 16.09 Clear SKC 22 8 41% 76.05 0.0
04 16:47 NW 20 G 31 16.09 A Few Clouds FEW030 23 9 41% 76.05 0.0
04 15:49 NW 17 16.09 Partly Cloudy SCT 24 11 44% 25 76.05 0.0
04 14:47 N 17 G 26 16.09 A Few Clouds FEW030 24 11 44% 25 76.05 0.0
04 13:47 Calm 16.09 A Few Clouds FEW030 23 10 44% 76.07 0.0
04 12:50 N 13 16.09 A Few Clouds FEW030 23 9 41% 76.1 0.0
04 11:47 NW 9 16.09 Partly Cloudy SCT030 22 11 50% 76.12 0.0
04 10:47 Calm 16.09 Partly Cloudy SCT030 21 13 60% 76.15 0.0
04 09:47 Calm 16.09 Partly Cloudy SCT030 19 13 68% 76.12 0.0
04 08:50 Calm 16.09 A Few Clouds FEW015 18 14 78% 76.1 0.0
04 07:47 Calm 16.09 Partly Cloudy SCT030 17 15 88% 76.07 0.0
04 06:55 Calm 16.09 Partly Cloudy SCT030 16 15 94% 76.02 0.0
03 21:47 NW 7 16.09 Partly Cloudy SCT050 21 16 73% 75.95 0.0
03 20:47 N 13 16.09 Partly Cloudy SCT050 21 15 69% 75.92 0.0
03 19:47 N 17 16.09 Partly Cloudy SCT050 21 15 69% 75.9 0.0
03 18:47 N 24 16.09 Partly Cloudy SCT050 22 14 61% 75.9 0.0
03 16:47 NW 17 16.09 Partly Cloudy SCT050 26 14 48% 26 75.87 0.0
03 15:47 NW 11 16.09 Clear SKC 26 14 48% 26 75.92 0.0
03 14:47 NW 11 16.09 Clear SKC 26 13 45% 26 75.97 0.0
03 13:47 NW 11 16.09 Clear SKC 26 13 45% 26 76 0.0
03 12:47 Calm 16.09 Clear SKC 25 12 44% 26 76.05 0.0
03 11:47 NW 7 16.09 Clear SKC 24 12 47% 25 76.12 0.0
03 10:47 Calm 16.09 Clear SKC 22 11 50% 76.15 0.0
03 09:47 S 6 16.09 Clear SKC 20 12 60% 76.17 0.0
03 08:47 Calm 16.09 Clear SKC 17 13 77% 76.23 0.0
03 07:47 Calm 16.09 Clear SKC 16 12 77% 76.23 0.0
03 06:55 Calm 16.09 Clear SKC 14 11 82% 76.2 0.0
02 21:57 NW 11 16.09 A Few Clouds FEW060 18 12 68% 76.3 0.0
02 20:51 N 15 16.09 A Few Clouds FEW060 19 12 64% 76.25 0.0
02 19:47 NW 22 16.09 A Few Clouds FEW060 20 11 56% 76.2 0.0
02 18:47 NW 22 16.09 A Few Clouds FEW060 22 12 53% 76.2 0.0
02 17:47 NW 24 16.09 Partly Cloudy SCT060 24 13 50% 25 76.2 0.0
02 16:47 NW 20 16.09 Partly Cloudy SCT060 25 14 51% 26 76.17 0.0
02 15:50 NW 11 16.09 Partly Cloudy SCT060 26 13 45% 26 76.2 0.0
02 14:47 W 13 16.09 Mostly Cloudy BKN060 26 12 42% 26 76.25 0.0
02 14:27 N 9 16.09 Mostly Cloudy BKN060 25 12 44% 26 76.28 0.0
02 13:47 Calm 16.09 Mostly Cloudy BKN060 26 12 42% 26 76.3 0.0
02 12:47 SW 13 G 26 16.09 Partly Cloudy SCT060 25 12 44% 26 76.33 0.0
02 11:47 Calm 16.09 Mostly Cloudy BKN060 23 11 47% 76.35 0.0
02 10:47 Calm 16.09 Partly Cloudy SCT060 22 11 50% 76.35 0.0
02 09:47 Vrbl 11 16.09 Partly Cloudy SCT060 19 11 60% 76.35 0.0
02 08:47 SW 13 16.09 Partly Cloudy SCT070 19 11 60% 76.35 0.0
02 07:47 Calm 16.09 Mostly Cloudy BKN070 17 10 64% 76.33 0.0
02 06:47 Vrbl 6 16.09 Mostly Cloudy BKN070 14 9 72% 76.3 0.0
Date Time (pdt) Wind (kph) Vis. (km) Weather Sky Cond. Air Dwpt Max. Min. Relative Humidity Wind Chill (°C) Heat Index (°C) altimeter (cm) sea level (mb) 1 hr 3 hr 6 hr
6 hour
Temperature (ºC) Pressure Precipitation (cm)